| time (UTC) | temp F | wind direction | speed MPH | gust MPH | rain 1hr in | rain 24hr in | rain mn in | humidity % | barometer mb |
| 20260510225032 | 65 | 0 | 0.0 | 0.0 | 0.00 | 0.19 | 0.00 | 77 | 1013.4 |
| 20260510224549 | 65 | 0 | 0.0 | 0.0 | 0.00 | 0.19 | 0.00 | 77 | 1013.3 |
| 20260510224031 | 65 | 0 | 0.0 | 0.0 | 0.00 | 0.19 | 0.00 | 78 | 1013.3 |
| 20260510223532 | 65 | 0 | 0.0 | 0.0 | 0.00 | 0.19 | 0.00 | 78 | 1013.3 |
| 20260510223100 | 65 | 0 | 0.0 | 0.0 | 0.00 | 0.19 | 0.00 | 78 | 1013.2 |
| 20260510222532 | 64 | 0 | 0.0 | 2.0 | 0.00 | 0.19 | 0.00 | 78 | 1013.3 |
| 20260510222031 | 64 | 0 | 0.0 | 2.0 | 0.00 | 0.19 | 0.00 | 77 | 1013.4 |
| 20260510221547 | 65 | 0 | 0.0 | 1.0 | 0.00 | 0.19 | 0.00 | 77 | 1013.4 |
| 20260510221032 | 65 | 0 | 0.0 | 2.0 | 0.00 | 0.19 | 0.00 | 77 | 1013.4 |
| 20260510220529 | 65 | 0 | 0.0 | 2.0 | 0.00 | 0.19 | 0.00 | 77 | 1013.3 |
| 20260510220036 | 65 | 240 | 0.0 | 2.0 | 0.00 | 0.19 | 0.00 | 78 | 1013.4 |
| 20260510215532 | 65 | 44 | 0.0 | 1.0 | 0.00 | 0.21 | 0.00 | 76 | 1013.4 |
| 20260510215031 | 65 | 46 | 0.0 | 2.0 | 0.00 | 0.21 | 0.00 | 77 | 1013.3 |
| 20260510214535 | 65 | 0 | 0.0 | 2.0 | 0.00 | 0.21 | 0.00 | 77 | 1013.2 |
| 20260510214032 | 65 | 138 | 0.0 | 2.0 | 0.00 | 0.21 | 0.00 | 77 | 1013.0 |
| 20260510213533 | 65 | 0 | 0.0 | 1.0 | 0.00 | 0.21 | 0.00 | 77 | 1013.2 |
| 20260510213057 | 64 | 0 | 0.0 | 4.0 | 0.00 | 0.21 | 0.00 | 77 | 1013.2 |
| 20260510212533 | 64 | 0 | 0.0 | 4.0 | 0.00 | 0.21 | 0.00 | 78 | 1013.1 |
| 20260510212035 | 65 | 130 | 1.0 | 4.0 | 0.00 | 0.21 | 0.00 | 77 | 1013.0 |
| 20260510211540 | 65 | 268 | 0.0 | 2.0 | 0.00 | 0.21 | 0.00 | 77 | 1013.2 |
| 20260510211032 | 64 | 0 | 0.0 | 5.0 | 0.00 | 0.21 | 0.00 | 77 | 1013.1 |
| 20260510210528 | 64 | 105 | 0.0 | 5.0 | 0.00 | 0.21 | 0.00 | 76 | 1013.1 |
| 20260510210051 | 65 | 311 | 1.0 | 5.0 | 0.00 | 0.21 | 0.00 | 76 | 1013.0 |
| 20260510205531 | 65 | 250 | 1.0 | 5.0 | 0.00 | 0.25 | 0.00 | 76 | 1012.9 |
| 20260510205032 | 65 | 195 | 0.0 | 4.0 | 0.00 | 0.25 | 0.00 | 77 | 1012.7 |
| 20260510204549 | 65 | 231 | 1.0 | 4.0 | 0.00 | 0.25 | 0.00 | 76 | 1012.6 |
| 20260510204031 | 65 | 0 | 1.0 | 5.0 | 0.00 | 0.25 | 0.00 | 76 | 1012.7 |
| 20260510203531 | 65 | 71 | 0.0 | 5.0 | 0.00 | 0.25 | 0.00 | 76 | 1012.7 |
| 20260510203042 | 65 | 198 | 1.0 | 5.0 | 0.00 | 0.25 | 0.00 | 75 | 1012.6 |
| 20260510202531 | 66 | 227 | 1.0 | 6.0 | 0.00 | 0.25 | 0.00 | 75 | 1012.7 |
| 20260510202032 | 66 | 301 | 1.0 | 6.0 | 0.00 | 0.25 | 0.00 | 76 | 1012.6 |
| 20260510201544 | 66 | 237 | 2.0 | 6.0 | 0.00 | 0.25 | 0.00 | 75 | 1012.7 |
| 20260510201035 | 66 | 240 | 2.0 | 7.0 | 0.00 | 0.25 | 0.00 | 77 | 1012.7 |
| 20260510200531 | 64 | 242 | 2.0 | 7.0 | 0.00 | 0.25 | 0.00 | 78 | 1012.7 |
| 20260510200038 | 64 | 110 | 1.0 | 7.0 | 0.00 | 0.25 | 0.00 | 77 | 1012.8 |
| 20260510195531 | 65 | 248 | 2.0 | 6.0 | 0.00 | 0.29 | 0.00 | 78 | 1012.8 |
| 20260510195031 | 65 | 118 | 1.0 | 8.0 | 0.00 | 0.29 | 0.00 | 79 | 1012.8 |
| 20260510194537 | 64 | 238 | 1.0 | 8.0 | 0.00 | 0.29 | 0.00 | 78 | 1012.7 |
| 20260510194033 | 64 | 139 | 3.0 | 8.0 | 0.00 | 0.29 | 0.00 | 77 | 1012.8 |
| 20260510193531 | 65 | 286 | 1.0 | 5.0 | 0.00 | 0.29 | 0.00 | 76 | 1012.8 |
| 20260510193037 | 65 | 124 | 2.0 | 5.0 | 0.00 | 0.29 | 0.00 | 76 | 1012.9 |
| 20260510192532 | 66 | 241 | 0.0 | 5.0 | 0.00 | 0.29 | 0.00 | 76 | 1012.8 |
| 20260510192034 | 66 | 72 | 1.0 | 5.0 | 0.00 | 0.29 | 0.00 | 75 | 1013.0 |
| 20260510191546 | 66 | 141 | 1.0 | 5.0 | 0.00 | 0.29 | 0.00 | 76 | 1012.9 |
| 20260510191032 | 66 | 108 | 1.0 | 6.0 | 0.00 | 0.29 | 0.00 | 75 | 1012.9 |
| 20260510190532 | 66 | 94 | 2.0 | 6.0 | 0.00 | 0.29 | 0.00 | 75 | 1012.9 |
| 20260510190051 | 66 | 107 | 2.0 | 6.0 | 0.00 | 0.29 | 0.00 | 75 | 1012.8 |
| 20260510185531 | 66 | 115 | 1.0 | 6.0 | 0.00 | 0.34 | 0.00 | 75 | 1013.0 |
| 20260510185031 | 66 | 0 | 2.0 | 6.0 | 0.00 | 0.34 | 0.00 | 75 | 1012.9 |
| 20260510184548 | 67 | 128 | 2.0 | 7.0 | 0.00 | 0.34 | 0.00 | 74 | 1013.0 |
| 20260510184031 | 67 | 214 | 2.0 | 9.0 | 0.00 | 0.34 | 0.00 | 75 | 1013.0 |
| 20260510183534 | 67 | 76 | 3.0 | 9.0 | 0.00 | 0.34 | 0.00 | 74 | 1013.0 |
| 20260510183056 | 67 | 105 | 3.0 | 9.0 | 0.00 | 0.34 | 0.00 | 73 | 1012.9 |
| 20260510182532 | 67 | 67 | 2.0 | 9.0 | 0.00 | 0.34 | 0.00 | 74 | 1013.0 |
| 20260510182030 | 66 | 83 | 2.0 | 10.0 | 0.00 | 0.34 | 0.00 | 78 | 1013.0 |
| 20260510181615 | 66 | 113 | 3.0 | 10.0 | 0.00 | 0.34 | 0.00 | 76 | 1012.9 |
| 20260510181035 | 66 | 351 | 4.0 | 10.0 | 0.00 | 0.34 | 0.00 | 75 | 1013.1 |
| 20260510180531 | 66 | 115 | 3.0 | 8.0 | 0.00 | 0.34 | 0.00 | 77 | 1013.3 |
| 20260510180049 | 66 | 83 | 2.0 | 9.0 | 0.00 | 0.34 | 0.00 | 75 | 1013.4 |
| 20260510175535 | 66 | 272 | 2.0 | 9.0 | 0.00 | 0.34 | 0.00 | 77 | 1013.5 |
| 20260510175031 | 66 | 153 | 2.0 | 11.0 | 0.00 | 0.34 | 0.00 | 76 | 1013.4 |
| 20260510174554 | 65 | 156 | 3.0 | 11.0 | 0.00 | 0.34 | 0.00 | 77 | 1013.2 |
| 20260510174031 | 65 | 91 | 3.0 | 11.0 | 0.00 | 0.34 | 0.00 | 76 | 1013.2 |
| 20260510173531 | 64 | 86 | 3.0 | 11.0 | 0.00 | 0.34 | 0.00 | 78 | 1013.1 |
| 20260510173038 | 65 | 107 | 5.0 | 11.0 | 0.00 | 0.34 | 0.00 | 78 | 1013.0 |
| 20260510172531 | 65 | 101 | 3.0 | 10.0 | 0.00 | 0.34 | 0.00 | 78 | 1013.0 |
| 20260510172031 | 65 | 86 | 3.0 | 10.0 | 0.00 | 0.34 | 0.00 | 76 | 1013.0 |
| 20260510171536 | 66 | 135 | 4.0 | 9.0 | 0.00 | 0.34 | 0.00 | 76 | 1013.1 |
| 20260510171031 | 66 | 166 | 1.0 | 8.0 | 0.00 | 0.34 | 0.00 | 75 | 1013.2 |
| 20260510170533 | 66 | 236 | 2.0 | 8.0 | 0.00 | 0.34 | 0.00 | 76 | 1013.4 |
| 20260510170043 | 66 | 215 | 1.0 | 5.0 | 0.00 | 0.34 | 0.00 | 76 | 1013.4 |
| 20260510165532 | 65 | 153 | 1.0 | 5.0 | 0.00 | 0.34 | 0.00 | 77 | 1013.2 |
| 20260510165032 | 65 | 248 | 1.0 | 5.0 | 0.00 | 0.34 | 0.00 | 76 | 1013.3 |
| 20260510164545 | 65 | 233 | 1.0 | 9.0 | 0.00 | 0.34 | 0.00 | 77 | 1013.4 |
| 20260510164031 | 65 | 250 | 3.0 | 9.0 | 0.00 | 0.34 | 0.00 | 78 | 1013.4 |
| 20260510163531 | 65 | 233 | 1.0 | 7.0 | 0.00 | 0.34 | 0.00 | 78 | 1013.4 |
| 20260510163043 | 63 | 212 | 1.0 | 7.0 | 0.00 | 0.34 | 0.00 | 81 | 1013.4 |
| 20260510162532 | 63 | 107 | 3.0 | 8.0 | 0.00 | 0.34 | 0.00 | 80 | 1013.4 |
| 20260510162031 | 62 | 243 | 4.0 | 8.0 | 0.00 | 0.34 | 0.00 | 81 | 1013.5 |
| 20260510161541 | 62 | 146 | 1.0 | 6.0 | 0.00 | 0.34 | 0.00 | 81 | 1013.4 |
| 20260510161034 | 62 | 101 | 1.0 | 7.0 | 0.00 | 0.34 | 0.00 | 80 | 1013.4 |
| 20260510160531 | 62 | 124 | 1.0 | 7.0 | 0.00 | 0.34 | 0.00 | 80 | 1013.5 |
| 20260510160042 | 62 | 261 | 1.0 | 5.0 | 0.00 | 0.34 | 0.00 | 80 | 1013.5 |
| 20260510155531 | 61 | 260 | 1.0 | 7.0 | 0.00 | 0.34 | 0.00 | 83 | 1013.6 |
| 20260510155034 | 61 | 235 | 2.0 | 7.0 | 0.00 | 0.34 | 0.00 | 82 | 1013.7 |
| 20260510154535 | 60 | 135 | 0.0 | 7.0 | 0.00 | 0.34 | 0.00 | 83 | 1013.7 |
| 20260510154031 | 60 | 91 | 3.0 | 7.0 | 0.00 | 0.34 | 0.00 | 84 | 1013.8 |
| 20260510153532 | 60 | 87 | 1.0 | 6.0 | 0.00 | 0.34 | 0.00 | 84 | 1013.9 |
| 20260510153035 | 59 | 230 | 1.0 | 4.0 | 0.00 | 0.34 | 0.00 | 85 | 1014.0 |
| 20260510152531 | 58 | 132 | 1.0 | 3.0 | 0.00 | 0.34 | 0.00 | 87 | 1013.9 |
| 20260510152031 | 58 | 246 | 1.0 | 2.0 | 0.00 | 0.34 | 0.00 | 87 | 1014.1 |
| 20260510151547 | 57 | 74 | 0.0 | 3.0 | 0.00 | 0.34 | 0.00 | 88 | 1014.0 |
| 20260510151031 | 56 | 0 | 0.0 | 3.0 | 0.00 | 0.34 | 0.00 | 87 | 1014.0 |
| 20260510150531 | 57 | 250 | 1.0 | 3.0 | 0.00 | 0.34 | 0.00 | 87 | 1014.1 |
| 20260510150045 | 57 | 241 | 0.0 | 2.0 | 0.00 | 0.34 | 0.00 | 87 | 1014.0 |
| 20260510145531 | 57 | 117 | 0.0 | 3.0 | 0.00 | 0.34 | 0.00 | 88 | 1013.9 |
| 20260510145031 | 56 | 0 | 0.0 | 3.0 | 0.00 | 0.34 | 0.00 | 89 | 1013.9 |
| 20260510144551 | 56 | 79 | 2.0 | 3.0 | 0.00 | 0.34 | 0.00 | 88 | 1013.8 |
| 20260510144031 | 56 | 89 | 1.0 | 3.0 | 0.00 | 0.34 | 0.00 | 88 | 1013.8 |
| 20260510143531 | 56 | 165 | 0.0 | 5.0 | 0.00 | 0.34 | 0.00 | 88 | 1013.7 |
| 20260510143035 | 56 | 224 | 0.0 | 5.0 | 0.00 | 0.34 | 0.00 | 88 | 1013.8 |
| 20260510142535 | 57 | 214 | 0.0 | 4.0 | 0.00 | 0.34 | 0.00 | 87 | 1013.7 |
| 20260510142032 | 57 | 243 | 1.0 | 4.0 | 0.00 | 0.34 | 0.00 | 87 | 1013.7 |
| 20260510141543 | 57 | 0 | 0.0 | 3.0 | 0.00 | 0.34 | 0.00 | 86 | 1013.6 |
| 20260510141032 | 57 | 91 | 0.0 | 3.0 | 0.00 | 0.34 | 0.00 | 87 | 1013.6 |
| 20260510140531 | 57 | 251 | 0.0 | 4.0 | 0.00 | 0.34 | 0.00 | 86 | 1013.6 |
| 20260510140043 | 57 | 0 | 0.0 | 4.0 | 0.00 | 0.34 | 0.00 | 87 | 1013.6 |
| 20260510135531 | 57 | 115 | 0.0 | 4.0 | 0.00 | 0.35 | 0.00 | 87 | 1013.6 |
| 20260510135031 | 56 | 266 | 0.0 | 4.0 | 0.00 | 0.35 | 0.00 | 88 | 1013.5 |
| 20260510134545 | 57 | 131 | 0.0 | 3.0 | 0.00 | 0.35 | 0.00 | 87 | 1013.6 |
| 20260510134031 | 56 | 158 | 0.0 | 3.0 | 0.00 | 0.35 | 0.00 | 88 | 1013.5 |
| 20260510133531 | 56 | 96 | 0.0 | 2.0 | 0.00 | 0.35 | 0.00 | 88 | 1013.6 |
| 20260510133037 | 56 | 102 | 0.0 | 3.0 | 0.00 | 0.35 | 0.00 | 88 | 1013.6 |
| 20260510132531 | 56 | 0 | 0.0 | 3.0 | 0.00 | 0.35 | 0.00 | 88 | 1013.6 |
| 20260510132032 | 56 | 0 | 0.0 | 3.0 | 0.00 | 0.35 | 0.00 | 89 | 1013.6 |
| 20260510131535 | 56 | 158 | 0.0 | 3.0 | 0.00 | 0.35 | 0.00 | 89 | 1013.6 |
| 20260510131032 | 56 | 0 | 0.0 | 2.0 | 0.00 | 0.35 | 0.00 | 90 | 1013.5 |
| 20260510130533 | 56 | 0 | 0.0 | 4.0 | 0.00 | 0.35 | 0.00 | 90 | 1013.6 |
| 20260510130045 | 55 | 0 | 1.0 | 4.0 | 0.00 | 0.35 | 0.00 | 90 | 1013.5 |
| 20260510125534 | 55 | 107 | 0.0 | 2.0 | 0.00 | 0.35 | 0.00 | 90 | 1013.5 |
| 20260510125032 | 55 | 73 | 1.0 | 2.0 | 0.00 | 0.35 | 0.00 | 91 | 1013.4 |
| 20260510124545 | 55 | 269 | 0.0 | 1.0 | 0.00 | 0.35 | 0.00 | 91 | 1013.3 |
| 20260510124032 | 55 | 240 | 0.0 | 1.0 | 0.00 | 0.35 | 0.00 | 92 | 1013.2 |
| 20260510123533 | 54 | 0 | 0.0 | 2.0 | 0.00 | 0.35 | 0.00 | 92 | 1013.1 |
| 20260510123042 | 54 | 0 | 0.0 | 2.0 | 0.00 | 0.35 | 0.00 | 93 | 1013.1 |
| 20260510122534 | 54 | 250 | 0.0 | 4.0 | 0.00 | 0.35 | 0.00 | 93 | 1013.0 |
| 20260510122032 | 54 | 0 | 1.0 | 4.0 | 0.00 | 0.35 | 0.00 | 93 | 1013.0 |
| 20260510121536 | 54 | 137 | 0.0 | 4.0 | 0.00 | 0.35 | 0.00 | 94 | 1013.2 |
| 20260510121032 | 53 | 235 | 0.0 | 2.0 | 0.00 | 0.35 | 0.00 | 94 | 1013.2 |
| 20260510120532 | 53 | 248 | 0.0 | 2.0 | 0.00 | 0.35 | 0.00 | 94 | 1013.1 |
| 20260510120037 | 53 | 0 | 0.0 | 1.0 | 0.00 | 0.35 | 0.00 | 95 | 1012.8 |
| 20260510115531 | 53 | 0 | 0.0 | 2.0 | 0.00 | 0.35 | 0.00 | 94 | 1012.5 |
| 20260510115032 | 53 | 231 | 0.0 | 4.0 | 0.00 | 0.35 | 0.00 | 95 | 1012.5 |
| 20260510114540 | 53 | 231 | 0.0 | 4.0 | 0.00 | 0.35 | 0.00 | 94 | 1012.3 |
| 20260510114031 | 53 | 0 | 0.0 | 3.0 | 0.00 | 0.35 | 0.00 | 94 | 1012.2 |
| 20260510113531 | 53 | 0 | 0.0 | 1.0 | 0.00 | 0.35 | 0.00 | 95 | 1012.3 |
| 20260510113044 | 53 | 0 | 0.0 | 1.0 | 0.00 | 0.35 | 0.00 | 95 | 1012.4 |
| 20260510112534 | 52 | 0 | 0.0 | 0.0 | 0.00 | 0.35 | 0.00 | 95 | 1012.5 |
| 20260510112032 | 52 | 0 | 0.0 | 1.0 | 0.00 | 0.35 | 0.00 | 95 | 1012.7 |
| 20260510111547 | 52 | 0 | 0.0 | 1.0 | 0.00 | 0.35 | 0.00 | 95 | 1012.5 |
| 20260510111031 | 52 | 0 | 0.0 | 0.0 | 0.00 | 0.35 | 0.00 | 95 | 1012.5 |
| 20260510110532 | 52 | 0 | 0.0 | 2.0 | 0.00 | 0.35 | 0.00 | 95 | 1012.5 |
| 20260510110038 | 52 | 0 | 0.0 | 2.0 | 0.00 | 0.35 | 0.00 | 95 | 1012.5 |
| 20260510105533 | 52 | 0 | 0.0 | 2.0 | 0.00 | 0.35 | 0.00 | 95 | 1012.4 |
| 20260510105035 | 52 | 0 | 0.0 | 1.0 | 0.00 | 0.35 | 0.00 | 95 | 1012.3 |
| 20260510104542 | 52 | 0 | 0.0 | 2.0 | 0.00 | 0.35 | 0.00 | 95 | 1012.4 |
| 20260510104031 | 51 | 120 | 0.0 | 2.0 | 0.00 | 0.35 | 0.00 | 95 | 1012.4 |
| 20260510103530 | 51 | 121 | 0.0 | 2.0 | 0.00 | 0.35 | 0.00 | 95 | 1012.2 |
| 20260510103048 | 51 | 75 | 0.0 | 2.0 | 0.00 | 0.35 | 0.00 | 95 | 1012.0 |
| 20260510102532 | 51 | 0 | 0.0 | 2.0 | 0.00 | 0.35 | 0.00 | 95 | 1011.9 |
| 20260510102032 | 51 | 0 | 0.0 | 0.0 | 0.00 | 0.35 | 0.00 | 95 | 1012.3 |
| 20260510101544 | 51 | 0 | 0.0 | 0.0 | 0.00 | 0.35 | 0.00 | 95 | 1012.3 |
| 20260510101031 | 51 | 0 | 0.0 | 0.0 | 0.00 | 0.35 | 0.00 | 94 | 1012.3 |
| 20260510100531 | 51 | 0 | 0.0 | 0.0 | 0.00 | 0.35 | 0.00 | 94 | 1012.5 |
| 20260510100110 | 51 | 0 | 0.0 | 0.0 | 0.00 | 0.35 | 0.00 | 94 | 1012.5 |
| 20260510095532 | 51 | 0 | 0.0 | 0.0 | 0.00 | 0.35 | 0.00 | 94 | 1012.7 |
| 20260510095031 | 51 | 115 | 0.0 | 1.0 | 0.00 | 0.35 | 0.00 | 94 | 1012.8 |
| 20260510094541 | 51 | 0 | 0.0 | 1.0 | 0.00 | 0.35 | 0.00 | 94 | 1012.5 |
| 20260510094033 | 51 | 0 | 0.0 | 1.0 | 0.00 | 0.35 | 0.00 | 95 | 1012.7 |
| 20260510093532 | 51 | 0 | 0.0 | 0.0 | 0.00 | 0.35 | 0.00 | 95 | 1012.7 |
| 20260510093048 | 52 | 0 | 0.0 | 0.0 | 0.00 | 0.35 | 0.00 | 94 | 1012.7 |
| 20260510092532 | 52 | 0 | 0.0 | 0.0 | 0.00 | 0.35 | 0.00 | 94 | 1012.8 |
| 20260510092032 | 52 | 0 | 0.0 | 0.0 | 0.00 | 0.35 | 0.00 | 94 | 1012.8 |
| 20260510091544 | 52 | 0 | 0.0 | 1.0 | 0.00 | 0.35 | 0.00 | 94 | 1012.7 |
| 20260510091033 | 52 | 0 | 0.0 | 1.0 | 0.00 | 0.35 | 0.00 | 94 | 1012.5 |
| 20260510090533 | 52 | 0 | 0.0 | 1.0 | 0.00 | 0.35 | 0.00 | 94 | 1012.5 |
| 20260510090045 | 52 | 0 | 0.0 | 0.0 | 0.00 | 0.35 | 0.00 | 95 | 1012.8 |
| 20260510085531 | 52 | 0 | 0.0 | 0.0 | 0.00 | 0.36 | 0.00 | 94 | 1012.9 |
| 20260510085031 | 52 | 0 | 0.0 | 1.0 | 0.00 | 0.36 | 0.00 | 95 | 1012.8 |
| 20260510084543 | 52 | 0 | 0.0 | 1.0 | 0.00 | 0.36 | 0.00 | 95 | 1012.8 |
| 20260510084031 | 52 | 0 | 0.0 | 0.0 | 0.00 | 0.36 | 0.00 | 95 | 1012.7 |
| 20260510083531 | 52 | 0 | 0.0 | 1.0 | 0.00 | 0.36 | 0.00 | 94 | 1012.7 |
| 20260510083044 | 52 | 0 | 0.0 | 1.0 | 0.00 | 0.36 | 0.00 | 94 | 1012.5 |
| 20260510082531 | 52 | 0 | 0.0 | 0.0 | 0.00 | 0.36 | 0.00 | 94 | 1012.4 |
| 20260510082032 | 52 | 0 | 0.0 | 0.0 | 0.00 | 0.36 | 0.00 | 94 | 1012.1 |
| 20260510081547 | 52 | 0 | 0.0 | 0.0 | 0.00 | 0.36 | 0.00 | 94 | 1012.0 |
| 20260510081031 | 52 | 0 | 0.0 | 0.0 | 0.00 | 0.36 | 0.00 | 94 | 1011.8 |
| 20260510080532 | 52 | 0 | 0.0 | 0.0 | 0.00 | 0.36 | 0.00 | 94 | 1011.8 |
| 20260510080043 | 52 | 0 | 0.0 | 0.0 | 0.00 | 0.36 | 0.00 | 94 | 1011.8 |
| 20260510075533 | 52 | 0 | 0.0 | 0.0 | 0.00 | 0.36 | 0.00 | 94 | 1011.8 |
| 20260510075031 | 52 | 0 | 0.0 | 0.0 | 0.00 | 0.36 | 0.00 | 94 | 1011.8 |
| 20260510074545 | 52 | 0 | 0.0 | 1.0 | 0.00 | 0.36 | 0.00 | 94 | 1011.9 |
| 20260510074032 | 52 | 0 | 0.0 | 1.0 | 0.00 | 0.36 | 0.00 | 94 | 1011.9 |
| 20260510073531 | 52 | 115 | 0.0 | 0.0 | 0.00 | 0.36 | 0.00 | 95 | 1011.9 |
| 20260510073042 | 52 | 0 | 0.0 | 0.0 | 0.00 | 0.36 | 0.00 | 95 | 1011.9 |
| 20260510072531 | 52 | 0 | 0.0 | 0.0 | 0.00 | 0.36 | 0.00 | 94 | 1011.9 |
| 20260510072034 | 52 | 0 | 0.0 | 0.0 | 0.00 | 0.36 | 0.00 | 94 | 1011.9 |
| 20260510071551 | 52 | 0 | 0.0 | 0.0 | 0.00 | 0.36 | 0.00 | 94 | 1012.0 |
| 20260510071031 | 52 | 0 | 0.0 | 0.0 | 0.00 | 0.36 | 0.00 | 94 | 1011.9 |
| 20260510070532 | 52 | 0 | 0.0 | 0.0 | 0.00 | 0.36 | 0.00 | 94 | 1012.0 |
| 20260510070216 | 52 | 0 | 0.0 | 0.0 | 0.00 | 0.36 | 0.00 | 94 | 1012.0 |
| 20260510065532 | 52 | 0 | 0.0 | 0.0 | 0.00 | 0.36 | 0.00 | 94 | 1012.0 |
| 20260510065031 | 52 | 0 | 0.0 | 0.0 | 0.00 | 0.36 | 0.00 | 94 | 1012.0 |
| 20260510064544 | 52 | 0 | 0.0 | 0.0 | 0.00 | 0.36 | 0.00 | 94 | 1011.9 |
| 20260510064031 | 52 | 0 | 0.0 | 0.0 | 0.00 | 0.36 | 0.00 | 94 | 1011.9 |
| 20260510063531 | 53 | 0 | 0.0 | 0.0 | 0.00 | 0.36 | 0.00 | 94 | 1011.8 |
| 20260510063045 | 53 | 0 | 0.0 | 0.0 | 0.00 | 0.36 | 0.00 | 94 | 1011.8 |
| 20260510062532 | 53 | 0 | 0.0 | 0.0 | 0.00 | 0.36 | 0.00 | 94 | 1011.7 |
| 20260510062032 | 53 | 0 | 0.0 | 0.0 | 0.00 | 0.36 | 0.00 | 94 | 1011.7 |
| 20260510061548 | 53 | 0 | 0.0 | 0.0 | 0.00 | 0.36 | 0.00 | 94 | 1011.5 |
| 20260510061031 | 53 | 0 | 0.0 | 0.0 | 0.00 | 0.36 | 0.00 | 94 | 1011.5 |
| 20260510060533 | 53 | 0 | 0.0 | 0.0 | 0.00 | 0.36 | 0.00 | 94 | 1011.5 |
| 20260510060037 | 53 | 0 | 0.0 | 0.0 | 0.00 | 0.36 | 0.00 | 94 | 1011.6 |
| 20260510055532 | 53 | 0 | 0.0 | 0.0 | 0.00 | 0.36 | 0.00 | 94 | 1011.7 |
| 20260510055032 | 53 | 0 | 0.0 | 0.0 | 0.00 | 0.36 | 0.00 | 94 | 1011.7 |
| 20260510054548 | 53 | 0 | 0.0 | 0.0 | 0.00 | 0.36 | 0.00 | 94 | 1011.8 |
| 20260510054032 | 53 | 0 | 0.0 | 0.0 | 0.00 | 0.36 | 0.00 | 94 | 1011.8 |
| 20260510053531 | 53 | 0 | 0.0 | 0.0 | 0.00 | 0.36 | 0.00 | 94 | 1011.9 |
| 20260510053043 | 53 | 0 | 0.0 | 0.0 | 0.00 | 0.36 | 0.00 | 94 | 1011.9 |
| 20260510052533 | 53 | 0 | 0.0 | 0.0 | 0.00 | 0.36 | 0.00 | 94 | 1011.9 |
| 20260510052031 | 53 | 0 | 0.0 | 1.0 | 0.00 | 0.36 | 0.00 | 94 | 1011.9 |
| 20260510051543 | 53 | 0 | 0.0 | 1.0 | 0.00 | 0.36 | 0.00 | 94 | 1011.9 |
| 20260510051031 | 53 | 116 | 0.0 | 1.0 | 0.00 | 0.36 | 0.00 | 94 | 1011.9 |
| 20260510050531 | 53 | 0 | 0.0 | 0.0 | 0.00 | 0.36 | 0.00 | 94 | 1011.9 |
| 20260510050041 | 53 | 0 | 0.0 | 0.0 | 0.00 | 0.36 | 0.00 | 94 | 1011.9 |
| 20260510045532 | 53 | 0 | 0.0 | 0.0 | 0.00 | 0.36 | 0.00 | 94 | 1011.9 |
| 20260510045031 | 53 | 0 | 0.0 | 0.0 | 0.00 | 0.36 | 0.00 | 94 | 1011.9 |
| 20260510044537 | 53 | 0 | 0.0 | 0.0 | 0.00 | 0.36 | 0.00 | 94 | 1011.9 |
| 20260510044035 | 53 | 0 | 0.0 | 0.0 | 0.00 | 0.36 | 0.00 | 94 | 1011.9 |
| 20260510043532 | 53 | 0 | 0.0 | 0.0 | 0.00 | 0.36 | 0.00 | 94 | 1011.8 |
| 20260510043047 | 53 | 0 | 0.0 | 0.0 | 0.00 | 0.36 | 0.00 | 94 | 1011.9 |
| 20260510042531 | 53 | 0 | 0.0 | 0.0 | 0.00 | 0.36 | 0.00 | 94 | 1011.9 |
| 20260510042034 | 53 | 0 | 0.0 | 0.0 | 0.00 | 0.36 | 0.00 | 94 | 1011.8 |
| 20260510041543 | 53 | 0 | 0.0 | 0.0 | 0.00 | 0.36 | 0.00 | 94 | 1011.7 |
| 20260510041031 | 53 | 0 | 0.0 | 0.0 | 0.00 | 0.36 | 0.00 | 94 | 1011.7 |
| 20260510040531 | 53 | 0 | 0.0 | 0.0 | 0.00 | 0.36 | 0.00 | 94 | 1011.7 |
| 20260510040042 | 53 | 0 | 0.0 | 0.0 | 0.00 | 0.36 | 0.00 | 94 | 1011.6 |
| 20260510035531 | 53 | 0 | 0.0 | 0.0 | 0.00 | 0.36 | 0.36 | 94 | 1011.6 |
| 20260510035033 | 53 | 0 | 0.0 | 0.0 | 0.00 | 0.36 | 0.36 | 94 | 1011.6 |
| 20260510034547 | 53 | 0 | 0.0 | 0.0 | 0.00 | 0.36 | 0.36 | 94 | 1011.7 |
| 20260510034033 | 53 | 0 | 0.0 | 0.0 | 0.00 | 0.36 | 0.36 | 94 | 1011.7 |
| 20260510033531 | 53 | 0 | 0.0 | 0.0 | 0.00 | 0.36 | 0.36 | 94 | 1011.6 |
| 20260510033100 | 53 | 0 | 0.0 | 0.0 | 0.00 | 0.36 | 0.36 | 94 | 1011.6 |
| 20260510032533 | 53 | 0 | 0.0 | 0.0 | 0.00 | 0.36 | 0.36 | 94 | 1011.8 |
| 20260510032032 | 53 | 0 | 0.0 | 0.0 | 0.00 | 0.36 | 0.36 | 94 | 1011.9 |
| 20260510031549 | 53 | 0 | 0.0 | 1.0 | 0.00 | 0.36 | 0.36 | 94 | 1011.8 |
| 20260510031031 | 53 | 0 | 0.0 | 1.0 | 0.00 | 0.36 | 0.36 | 94 | 1012.0 |
| 20260510030531 | 53 | 0 | 0.0 | 0.0 | 0.00 | 0.36 | 0.36 | 94 | 1011.9 |
| 20260510030044 | 53 | 0 | 0.0 | 0.0 | 0.00 | 0.36 | 0.36 | 94 | 1011.9 |
| 20260510025532 | 53 | 0 | 0.0 | 1.0 | 0.00 | 0.36 | 0.36 | 94 | 1011.7 |
| 20260510025031 | 53 | 113 | 0.0 | 1.0 | 0.00 | 0.36 | 0.36 | 94 | 1011.8 |
| 20260510024545 | 53 | 0 | 0.0 | 1.0 | 0.00 | 0.36 | 0.36 | 94 | 1011.8 |
| 20260510024032 | 53 | 0 | 0.0 | 0.0 | 0.00 | 0.36 | 0.36 | 94 | 1011.8 |
| 20260510023533 | 52 | 0 | 0.0 | 0.0 | 0.00 | 0.36 | 0.36 | 94 | 1011.8 |
| 20260510023044 | 52 | 0 | 0.0 | 0.0 | 0.00 | 0.36 | 0.36 | 94 | 1011.8 |
| 20260510022533 | 52 | 0 | 0.0 | 0.0 | 0.00 | 0.36 | 0.36 | 94 | 1011.7 |
| 20260510022033 | 52 | 0 | 0.0 | 0.0 | 0.00 | 0.36 | 0.36 | 94 | 1011.7 |
| 20260510021544 | 52 | 0 | 0.0 | 0.0 | 0.00 | 0.36 | 0.36 | 94 | 1011.7 |
| 20260510021031 | 52 | 0 | 0.0 | 0.0 | 0.00 | 0.36 | 0.36 | 94 | 1011.8 |
| 20260510020531 | 52 | 0 | 0.0 | 0.0 | 0.00 | 0.36 | 0.36 | 94 | 1011.7 |
| 20260510020045 | 52 | 0 | 0.0 | 0.0 | 0.00 | 0.36 | 0.36 | 94 | 1011.8 |
| 20260510015532 | 52 | 0 | 0.0 | 0.0 | 0.00 | 0.36 | 0.36 | 94 | 1011.8 |
| 20260510015033 | 52 | 0 | 0.0 | 0.0 | 0.00 | 0.36 | 0.36 | 93 | 1011.8 |
| 20260510014543 | 53 | 0 | 0.0 | 0.0 | 0.00 | 0.36 | 0.36 | 93 | 1011.8 |
| 20260510014032 | 53 | 0 | 0.0 | 0.0 | 0.00 | 0.36 | 0.36 | 94 | 1011.8 |
| 20260510013533 | 53 | 0 | 0.0 | 0.0 | 0.00 | 0.36 | 0.36 | 94 | 1011.7 |
| 20260510013038 | 53 | 0 | 0.0 | 0.0 | 0.00 | 0.36 | 0.36 | 94 | 1011.7 |
| 20260510012532 | 53 | 0 | 0.0 | 0.0 | 0.00 | 0.36 | 0.36 | 94 | 1011.6 |
| 20260510012033 | 53 | 0 | 0.0 | 0.0 | 0.00 | 0.36 | 0.36 | 94 | 1011.6 |
| 20260510011547 | 53 | 0 | 0.0 | 0.0 | 0.00 | 0.36 | 0.36 | 94 | 1011.7 |
| 20260510011032 | 53 | 0 | 0.0 | 0.0 | 0.00 | 0.36 | 0.36 | 94 | 1011.7 |
| 20260510010531 | 52 | 0 | 0.0 | 1.0 | 0.00 | 0.36 | 0.36 | 94 | 1011.6 |
| 20260510010043 | 52 | 0 | 0.0 | 1.0 | 0.00 | 0.36 | 0.36 | 94 | 1011.6 |
| 20260510005533 | 52 | 0 | 0.0 | 0.0 | 0.00 | 0.36 | 0.36 | 93 | 1011.5 |
| 20260510005032 | 52 | 0 | 0.0 | 0.0 | 0.00 | 0.36 | 0.36 | 93 | 1011.4 |
| 20260510004548 | 52 | 0 | 0.0 | 0.0 | 0.00 | 0.36 | 0.36 | 93 | 1011.5 |
| 20260510004031 | 53 | 0 | 0.0 | 0.0 | 0.00 | 0.36 | 0.36 | 93 | 1011.5 |
| 20260510003532 | 53 | 89 | 0.0 | 1.0 | 0.00 | 0.36 | 0.36 | 93 | 1011.5 |
| 20260510003103 | 53 | 0 | 0.0 | 1.0 | 0.01 | 0.36 | 0.36 | 93 | 1011.3 |
| 20260510002531 | 53 | 0 | 0.0 | 1.0 | 0.01 | 0.36 | 0.36 | 93 | 1011.2 |
| 20260510002031 | 53 | 0 | 0.0 | 2.0 | 0.01 | 0.36 | 0.36 | 93 | 1011.2 |
| 20260510001545 | 53 | 0 | 0.0 | 2.0 | 0.01 | 0.36 | 0.36 | 93 | 1011.1 |
| 20260510001029 | 53 | 230 | 0.0 | 4.0 | 0.02 | 0.36 | 0.36 | 93 | 1011.1 |
| 20260510000532 | 53 | 0 | 0.0 | 4.0 | 0.03 | 0.36 | 0.36 | 93 | 1011.1 |
| 20260510000046 | 53 | 108 | 0.0 | 2.0 | 0.04 | 0.36 | 0.36 | 93 | 1011.1 |
| 20260509235531 | 53 | 126 | 0.0 | 3.0 | 0.06 | 0.36 | 0.36 | 93 | 1011.1 |
| 20260509235032 | 53 | 0 | 0.0 | 3.0 | 0.09 | 0.36 | 0.36 | 93 | 1011.0 |
| 20260509234559 | 53 | 149 | 1.0 | 3.0 | 0.10 | 0.36 | 0.36 | 93 | 1010.9 |
| 20260509234032 | 54 | 0 | 0.0 | 5.0 | 0.11 | 0.36 | 0.36 | 93 | 1010.9 |
| 20260509233531 | 54 | 147 | 1.0 | 5.0 | 0.10 | 0.35 | 0.35 | 93 | 1011.1 |
| 20260509233042 | 54 | 135 | 2.0 | 5.0 | 0.10 | 0.35 | 0.35 | 93 | 1011.2 |
| 20260509232532 | 54 | 127 | 1.0 | 3.0 | 0.11 | 0.35 | 0.35 | 93 | 1011.4 |
| 20260509232031 | 54 | 126 | 1.0 | 3.0 | 0.12 | 0.35 | 0.35 | 93 | 1011.6 |
| 20260509231548 | 54 | 85 | 1.0 | 3.0 | 0.12 | 0.34 | 0.34 | 93 | 1011.7 |
| 20260509231032 | 54 | 0 | 0.0 | 2.0 | 0.13 | 0.34 | 0.34 | 93 | 1011.9 |
| 20260509230531 | 54 | 90 | 0.0 | 3.0 | 0.14 | 0.33 | 0.33 | 93 | 1011.9 |
| 20260509230053 | 54 | 95 | 0.0 | 3.0 | 0.14 | 0.31 | 0.31 | 93 | 1011.9 |
| 20260509225533 | 55 | 0 | 0.0 | 2.0 | 0.12 | 0.29 | 0.29 | 93 | 1012.1 |